Home   Weather   Taunton   Past weeks

Flag for United Kingdom Past Weather in Taunton, England, United Kingdom — Yesterday and Last 2 Weeks

49 °F


Feels Like: 45 °F
Forecast: 46 / 60 °F
Wind: 8 mph from Southeast

Location: Dunkeswell Aerodrome

Current Time: Oct 24, 2016 at 10:56:37 PM

Latest Report: Oct 24, 2016 at 10:00 PM

Visibility: 1 mi

Pressure: 29.99 "Hg

Humidity: 99%

Dew Point: 49 °F

Location of TauntonLocation

Past Weather in Taunton — Graph


Taunton Temperature Yesterday

Maximum temperature yesterday: 49 °F (at 1:00 PM)
Minimum temperature yesterday: 42 °F (at 2:00 AM)
Average temperature yesterday: 45 °F

High & Low Weather Summary for the Past Weeks

High58 °F (Oct 16, 2:00 PM)100% (Oct 11, 3:00 AM)30.40 "Hg (Oct 11, 3:00 AM)
Low38 °F (Oct 14, 4:00 AM)59% (Oct 10, 2:00 PM)29.59 "Hg (Oct 15, 4:00 AM)
Average47 °F89%30.03 "Hg
* Reported Oct 9 9:00 PM — Oct 24 9:00 PM, Taunton, Weather by CustomWeather, © 2016

Note: Actual official high and low records may vary slightly from our data, if they occured in-between our weather recording intervals... More about our weather records


Taunton Weather History for the Previous 24 Hours

Scroll right to see more
Time TempWeatherWind HumidityBarometerVisibility
9:00 PM
Mon, Oct 24
49 °FLight rain. Overcast.8 mph99%29.97 "Hg1 mi
8:00 PM49 °FRain showers. Overcast.7 mph99%29.95 "Hg1 mi
7:00 PM49 °FLight rain. Overcast.8 mph99%29.93 "Hg1 mi
6:00 PM49 °FDrizzle. Cloudy.8 mph99%29.91 "Hg1 mi
5:00 PM49 °FDrizzle. Cloudy.9 mph100%29.90 "Hg2 mi
4:00 PM49 °FCool.12 mph99%29.88 "Hg2 mi
3:00 PM48 °FCool.10 mph99%29.87 "Hg2 mi
2:00 PM48 °FLight rain. Cloudy.14 mph99%29.86 "Hg3 mi
1:00 PM47 °FLight rain. Cloudy.13 mph99%29.85 "Hg2 mi
12:00 PM46 °FRain. Cloudy.13 mph98%29.86 "Hg1 mi
11:00 AM46 °FFreezing rain. Cloudy.8 mph97%29.86 "Hg1 mi
10:00 AM46 °FLight freezing rain. Cloudy.12 mph95%29.84 "Hg3 mi
9:00 AM46 °FFog.12 mph96%29.83 "Hg3 mi
8:00 AM45 °FFog.13 mph96%29.81 "Hg4 mi
7:00 AM45 °FFog.15 mph97%29.80 "Hg3 mi
6:00 AM45 °FCool.16 mph97%29.80 "Hg3 mi
5:00 AM45 °FFog.15 mph97%29.79 "Hg2 mi
4:00 AM45 °FQuite cool.15 mph97%29.78 "Hg3 mi
3:00 AM45 °FLight rain. Overcast.20 mph97%29.78 "Hg2 mi
2:00 AM45 °FRain. Overcast.16 mph97%29.80 "Hg1 mi
1:00 AM45 °FLight rain. Overcast.16 mph93%29.79 "Hg3 mi
12:00 AM46 °FLight rain. Overcast.16 mph88%29.79 "Hg6 mi
11:00 PM
Sun, Oct 23
46 °FRain showers. Overcast.18 mph84%29.79 "Hg7 mi
10:00 PM47 °FRain showers. Overcast.17 mph81%29.78 "Hg11 mi
Weather by CustomWeather, © 2016

See weather overviewHow to use our weather pages